[[{"header":{"parameterUnit":"m.s-1","parameterCategory":1,"la1":30.2991,"la2":30.254,"lo1":-89.0895,"lo2":-89.0444,"dy":0.0017,"dx":0.0017,"nx":28,"ny":28,"refTime":"2024-09-28T03:00:00:Z","depth":0,"parameterNumber":2,"parameterNumberName":"U-component_of_WINDS"},"data":[0,0,0,0,0,0,0,0,0,0,0,0,0,0,0,0,0,0,0,0,0,0,0,0,0,0,0,0,0,0,0,0,0,0,0,0,0,0,0,0,0,0,0,0,0,0,0,0,0,0,0,0,0,0,0,0,0,0,5.7296,5.7298,0,5.7547,5.755,5.7553,5.7503,5.7499,5.7494,5.749,5.7751,5.7762,5.7773,0,0,0,0,0,0,0,0,0,0,0,0,0,5.6774,5.6784,5.7295,5.7299,5.7302,5.7546,5.755,5.7553,5.7504,5.7498,5.7493,5.7488,5.7747,5.7761,5.7774,0,0,0,0,0,0,0,0,0,0,0,0,0,5.7011,5.6787,5.7295,5.7307,5.731,5.7546,5.755,5.7554,5.7505,5.7498,5.7491,5.7485,5.7743,5.7759,5.7776,5.8017,0,0,5.7827,5.7835,0,0,0,0,0,0,0,0,5.6997,5.703,5.7302,5.7306,5.7311,5.7487,5.7462,5.771,5.7507,5.7431,5.749,5.7482,5.7669,5.7691,5.7754,5.8029,5.8041,5.7829,5.7839,5.7846,5.7851,0,0,0,0,0,0,0,5.6981,5.7019,5.7395,5.7306,5.7311,5.73,5.7326,5.7509,5.7586,5.7437,5.7434,5.7464,5.767,5.7738,5.776,5.8045,5.7828,5.7843,5.7854,5.786,5.8526,5.8534,0,0,0,0,0,0,5.696,5.7005,5.7387,5.7403,5.7134,5.7314,5.7344,5.7437,5.7583,5.7599,5.747,5.7461,5.7712,5.774,5.7769,5.8057,5.7846,5.7862,5.7872,5.8519,5.8528,5.8536,0,0,0,0,0,0,5.6949,5.6995,5.7377,5.7203,5.7251,5.7331,5.7436,5.7446,5.7513,5.7608,5.7622,5.7525,5.7708,5.7745,5.7954,5.8066,5.787,5.7885,5.851,5.8522,5.8532,5.8639,0,0,0,0,0,0,5.6935,5.6991,5.7084,5.7206,5.726,5.7559,5.7443,5.7456,5.7542,5.7533,5.7663,5.7678,5.7705,5.793,5.7971,5.8085,5.7898,5.85,5.8515,5.8529,5.8626,5.8653,5.8675,0,0,0,0,0,5.6916,5.7106,5.7089,5.7135,5.7378,5.7565,5.7597,5.7623,5.7551,5.7644,5.7705,5.7674,5.8047,5.7951,5.7998,5.8119,5.8493,5.8511,5.8528,5.8615,5.8647,5.8675,0,0,0,0,0,0,5.6997,5.7122,5.7104,5.7339,5.7441,5.7556,5.7675,5.7657,5.7784,5.777,5.7798,5.7828,5.804,5.8101,5.7992,5.8358,5.826,5.8287,5.831,5.8342,5.8367,5.8347,5.7912,0,0,0,0,0,5.7041,5.7183,5.7285,5.7482,5.7534,5.7596,5.7679,5.7689,5.7797,5.7841,5.7917,5.8024,5.8164,5.8257,5.8392,5.8635,5.8661,5.8741,5.8765,5.8785,5.8808,5.8937,5.8973,5.8592,5.8592,5.8592,0,0,5.7136,5.7222,5.731,5.75,5.7581,5.7726,5.7633,5.7792,5.7899,5.7866,5.8067,5.8126,5.8247,5.8473,5.8577,5.853,5.8919,5.8807,5.8822,5.8834,5.8958,5.8994,5.9026,5.8604,5.8602,5.86,0,0,5.7382,5.7462,5.7633,5.7715,5.7837,5.7876,5.7917,5.8035,5.8072,5.8274,5.8251,5.838,5.8623,5.8709,5.8784,5.9059,5.9034,5.9102,5.9232,5.9357,5.9387,5.9414,5.9509,5.9543,5.9125,5.9125,5.9126,0,5.7484,5.7701,5.7723,5.7883,5.7966,5.794,5.8113,5.8192,5.8353,5.8411,5.8357,5.8658,5.8738,5.8982,5.9048,5.9111,5.9158,5.9087,5.9381,5.9408,5.9433,5.9524,5.956,5.9133,5.9132,5.9131,5.913,0,5.7819,5.797,5.8093,5.8246,5.8344,5.851,5.8556,5.8653,5.8654,5.8699,5.8904,5.8998,5.915,5.9209,5.9215,5.9454,5.942,5.9374,5.9275,5.9476,5.9561,5.9597,5.9143,5.914,5.9138,5.9136,0,0,5.8124,5.8284,5.8329,5.8396,5.8528,5.8645,5.8809,5.8955,5.9036,5.9148,5.9284,5.9489,5.9445,5.953,5.9545,5.9655,5.9862,5.9594,5.9597,5.9638,6.0128,6.016,6.0201,5.9847,5.9854,5.9859,6.0117,0,5.8379,5.8666,5.8689,5.8948,5.9085,5.9061,5.9203,5.9299,5.9345,5.9469,5.952,5.9663,5.9596,5.9647,5.9755,5.9814,5.996,5.9796,5.9973,5.9979,5.9941,6.0246,6.0282,6.0521,6.0151,6.0156,6.0161,0,5.8717,5.8834,5.9105,5.9214,5.9273,5.94,5.9534,5.9653,5.9761,5.9786,5.988,5.9878,6.0045,5.9942,6.0172,6.0059,6.0133,6.0173,6.0182,6.0199,6.0081,6.0268,6.0598,6.0632,6.0214,6.021,6.0206,0,5.8907,5.9135,5.9325,5.9384,5.9517,5.9606,5.9665,5.9766,5.9851,5.9969,6.0024,6.0161,6.0236,6.0342,6.0376,6.0298,6.0604,6.0504,6.0628,6.0627,6.0693,6.0688,6.1037,6.0745,6.0744,6.0743,6.0743,0,5.9189,5.9356,5.9412,5.9529,5.9714,5.9739,5.9921,5.9976,6.0065,6.0192,6.0181,6.03,6.0339,6.0465,6.0493,6.0677,6.0712,6.0737,6.0742,6.0737,6.0733,6.0784,6.0768,6.0753,6.0751,6.0749,6.0747,0,5.9434,5.9479,5.9684,5.9791,5.9822,5.9953,6.0045,6.0157,6.02,6.036,6.0399,6.0467,6.0614,6.0659,6.0838,6.0856,6.1071,6.1063,6.1034,6.1034,6.1155,6.1141,6.1547,6.16,6.1275,6.1278,6.1281,0,5.961,5.9736,5.9856,5.9939,6.0001,6.0136,6.0221,6.0251,6.034,6.047,6.0567,6.0712,6.0829,6.1066,6.1131,6.1266,6.126,6.1392,6.128,6.1269,6.1258,6.1249,6.1261,6.1413,6.1416,6.1419,6.1421,0,5.9916,5.9931,6.0054,6.0185,6.0287,6.0392,6.0493,6.0562,6.0606,6.0707,6.0856,6.0947,6.1127,6.127,6.1407,6.1469,6.1453,6.1456,6.1491,6.1486,6.1463,6.1474,6.1089,6.1446,6.1444,6.1442,6.1441,6.144,6.013,6.024,6.0339,6.0477,6.0555,6.0649,6.0758,6.0813,6.0937,6.1084,6.1094,6.1255,6.1357,6.1538,6.1607,6.1732,6.1694,6.1746,6.1759,6.1771,6.1779,6.1444,6.1758,6.1757,6.1757,6.1756,6.1756,0,6.0433,6.0495,6.0621,6.076,6.0868,6.0841,6.095,6.1042,6.1183,6.1278,6.1393,6.1563,6.1701,6.1776,6.1913,6.1999,6.1995,6.2034,6.2027,6.2041,6.1807,6.1761,6.2035,6.2035,6.2035,6.2035,6.2035,6.2035,6.0603,6.0786,6.0812,6.1033,6.1094,6.125,6.1314,6.14,6.1476,6.1665,6.1779,6.1826,6.1913,6.2056,6.2181,6.2199,6.2249,6.2293,6.2307,6.2087,6.2058,6.2031,6.1987,6.2304,6.2305,6.2529,6.2531,6.2533]},{"header":{"parameterUnit":"m.s-1","parameterCategory":1,"la1":30.2991,"la2":30.254,"lo1":-89.0895,"lo2":-89.0444,"dy":0.0017,"dx":0.0017,"nx":28,"ny":28,"refTime":"2024-09-28T03:00:00:Z","depth":0,"parameterNumber":3,"parameterNumberName":"V-component_of_WINDS"},"data":[0,0,0,0,0,0,0,0,0,0,0,0,0,0,0,0,0,0,0,0,0,0,0,0,0,0,0,0,0,0,0,0,0,0,0,0,0,0,0,0,0,0,0,0,0,0,0,0,0,0,0,0,0,0,0,0,0,0,1.723,1.723,0,1.7256,1.7256,1.7256,1.7218,1.7217,1.7215,1.7214,1.724,1.7242,1.7244,0,0,0,0,0,0,0,0,0,0,0,0,0,1.7146,1.7148,1.723,1.723,1.7231,1.7256,1.7256,1.7256,1.7218,1.7217,1.7215,1.7214,1.724,1.7242,1.7244,0,0,0,0,0,0,0,0,0,0,0,0,0,1.7179,1.7149,1.723,1.7215,1.7213,1.7256,1.7256,1.7256,1.7219,1.7217,1.7215,1.7213,1.7239,1.7242,1.7245,1.7303,0,0,1.7254,1.7255,0,0,0,0,0,0,0,0,1.7177,1.7182,1.7217,1.7216,1.7215,1.7232,1.7236,1.7272,1.7219,1.7217,1.7214,1.7212,1.7239,1.7242,1.7251,1.7304,1.7305,1.7254,1.7256,1.7257,1.7258,0,0,0,0,0,0,0,1.7175,1.718,1.724,1.7217,1.7216,1.7206,1.7208,1.7243,1.7239,1.7217,1.7214,1.7218,1.7238,1.7248,1.7252,1.7306,1.7254,1.7256,1.7258,1.7259,1.7406,1.7408,0,0,0,0,0,0,1.7174,1.7179,1.7239,1.7241,1.719,1.7209,1.7212,1.7228,1.7238,1.7238,1.7219,1.7216,1.7244,1.7248,1.7252,1.732,1.7257,1.726,1.7261,1.7404,1.7407,1.7409,0,0,0,0,0,0,1.7173,1.718,1.7238,1.7209,1.7216,1.7213,1.7231,1.723,1.724,1.724,1.7239,1.7231,1.7243,1.7248,1.729,1.7321,1.7261,1.7264,1.7401,1.7405,1.7408,1.7457,0,0,0,0,0,0,1.717,1.718,1.7202,1.721,1.7217,1.7276,1.7233,1.7232,1.7245,1.7241,1.7251,1.725,1.7242,1.7286,1.7293,1.7324,1.7266,1.7399,1.7403,1.7407,1.7453,1.7462,1.7469,0,0,0,0,0,1.7168,1.7216,1.7204,1.7211,1.7246,1.7278,1.7283,1.7272,1.7248,1.727,1.727,1.725,1.7316,1.7291,1.7298,1.733,1.7397,1.7402,1.7406,1.7449,1.746,1.7469,0,0,0,0,0,0,1.7212,1.7216,1.7203,1.7255,1.7267,1.7272,1.73,1.7284,1.7303,1.7298,1.7283,1.7286,1.7331,1.7335,1.7306,1.7386,1.7352,1.7359,1.7382,1.7393,1.7401,1.7399,1.7268,0,0,0,0,0,1.7228,1.7254,1.7256,1.7302,1.7308,1.7303,1.7317,1.7307,1.7319,1.7324,1.7327,1.7338,1.7361,1.7377,1.7399,1.7453,1.7454,1.7478,1.7487,1.7493,1.7499,1.7527,1.7538,1.7425,1.7425,1.7425,0,0,1.7261,1.7266,1.7284,1.7311,1.7319,1.7346,1.7308,1.7338,1.7358,1.7328,1.7368,1.7371,1.7382,1.7431,1.7452,1.7435,1.7531,1.75,1.7505,1.7507,1.7533,1.7544,1.7554,1.7428,1.7427,1.7427,0,0,1.7335,1.7342,1.738,1.7388,1.74,1.7396,1.7406,1.7413,1.7413,1.7453,1.7431,1.7454,1.7494,1.7503,1.7513,1.7589,1.7571,1.7596,1.764,1.7667,1.7676,1.7684,1.771,1.772,1.7602,1.7602,1.7602,0,1.7374,1.7415,1.7402,1.7434,1.7446,1.7419,1.7457,1.7466,1.7485,1.7493,1.7474,1.7523,1.753,1.7579,1.7597,1.7606,1.7616,1.7595,1.7676,1.7683,1.769,1.7715,1.7726,1.7605,1.7605,1.7605,1.7604,0,1.7462,1.7491,1.752,1.7538,1.7553,1.7588,1.758,1.7597,1.7586,1.7583,1.7623,1.763,1.7651,1.7662,1.7652,1.771,1.7699,1.7678,1.7644,1.7704,1.7728,1.7737,1.761,1.7608,1.7608,1.7607,0,0,1.7567,1.7576,1.7587,1.7594,1.7605,1.7626,1.7659,1.768,1.7695,1.7708,1.7735,1.7769,1.7749,1.776,1.775,1.7774,1.7833,1.775,1.775,1.7765,1.7897,1.7912,1.7924,1.7821,1.7823,1.7824,1.7895,0,1.764,1.7697,1.7686,1.7742,1.7767,1.7741,1.777,1.7779,1.7778,1.7799,1.7797,1.7821,1.7793,1.78,1.7822,1.7821,1.7859,1.7816,1.7846,1.7847,1.7844,1.7936,1.7953,1.802,1.7904,1.7906,1.7907,0,1.7734,1.775,1.7808,1.7814,1.7824,1.785,1.7867,1.7888,1.7897,1.7894,1.7906,1.7891,1.7923,1.7888,1.7932,1.7903,1.7914,1.7915,1.7917,1.792,1.7881,1.7941,1.8041,1.8052,1.7921,1.792,1.7919,0,1.7803,1.7839,1.7879,1.7886,1.7893,1.7912,1.7916,1.7923,1.7936,1.7951,1.7959,1.7978,1.7988,1.8003,1.7993,1.7969,1.8038,1.8003,1.8036,1.8037,1.8052,1.8052,1.8156,1.806,1.806,1.8059,1.8059,0,1.7886,1.7923,1.791,1.7934,1.7974,1.796,1.8,1.8,1.8007,1.803,1.8009,1.8032,1.8017,1.8038,1.8031,1.8068,1.8073,1.8071,1.8068,1.8073,1.8073,1.808,1.8075,1.8062,1.8062,1.8061,1.8061,0,1.7971,1.7964,1.8005,1.8008,1.8009,1.8039,1.8041,1.8063,1.8059,1.8089,1.8095,1.8089,1.8113,1.8104,1.813,1.8124,1.8171,1.8163,1.8168,1.8166,1.82,1.8197,1.8313,1.8327,1.8222,1.8223,1.8224,0,1.8025,1.8052,1.8058,1.8072,1.8077,1.81,1.8113,1.81,1.8114,1.8126,1.8146,1.8168,1.8184,1.8223,1.8221,1.824,1.8231,1.8271,1.8234,1.8237,1.8231,1.823,1.8232,1.8278,1.8279,1.828,1.8281,0,1.8121,1.8115,1.8134,1.8152,1.8168,1.8181,1.8193,1.8205,1.8192,1.8209,1.8233,1.8246,1.8271,1.8292,1.8309,1.8312,1.8295,1.8292,1.8301,1.8306,1.8308,1.8307,1.8188,1.829,1.8289,1.8288,1.8288,1.8288,1.8191,1.8214,1.8221,1.8243,1.825,1.8261,1.8281,1.828,1.8299,1.8319,1.8309,1.8336,1.8344,1.8364,1.837,1.839,1.8375,1.8388,1.8391,1.8395,1.8399,1.8304,1.8393,1.8393,1.8393,1.8393,1.8392,0,1.8285,1.8288,1.8309,1.8325,1.8342,1.8323,1.8334,1.835,1.8374,1.8382,1.8399,1.8425,1.8445,1.8444,1.8463,1.848,1.8472,1.8485,1.8484,1.8484,1.8412,1.8402,1.8491,1.8491,1.8491,1.8491,1.8491,1.8491,1.8337,1.8374,1.8369,1.8409,1.8412,1.8438,1.8446,1.8456,1.8462,1.8493,1.8509,1.8508,1.8512,1.8531,1.8548,1.8547,1.8555,1.8571,1.8567,1.8499,1.849,1.848,1.8471,1.8573,1.8573,1.8638,1.8639,1.8639]}]]